Regional Weather Roundup
Issued by NWS Newport/Morehead, NC

Current Version | Previous Version | Text Only | Print | Product List | Glossary On
Versions: 1 2 3 4 5 6 7 8 9 10 11 12 13 14 15 16 17 18 19 20 21 22 23 24 25 26 27 28 29 30 31 32 33 34 35 36 37 38 39 40 41 42 43 44 45 46 47 48 49 50
000
ASUS42 KMHX 181513
RWRMHX
WEATHER ROUNDUP FOR EASTERN NORTH CAROLINA
NATIONAL WEATHER SERVICE NEWPORT/MOREHEAD CITY NC
1100 AM EDT WED OCT 18 2017

NOTE: "FAIR" INDICATES FEW OR NO CLOUDS BELOW 12,000 FEET
WITH NO SIGNIFICANT WEATHER AND/OR OBSTRUCTIONS TO VISIBILITY

NCZ015>017-031-032-045>047-102-103-181600-
NORTH COAST

CITY           SKY/WX    TMP DP  RH WIND       PRES   REMARKS
EDENTON        SUNNY     63  54  71 CALM      30.38F
ELIZABETH CITY MOSUNNY   65  52  62 NE13      30.38S
KITTY HAWK     SUNNY     65  50  56 NE7       30.35S
MANTEO         SUNNY    N/A N/A N/A NE14      30.36S

$$

NCZ045>047-081-094-103-104-181600-
CENTRAL COAST

CITY           SKY/WX    TMP DP  RH WIND       PRES   REMARKS
FRISCO         MOSUNNY   69  56  62 NE10G20   30.33S

$$

NCZ095-097-098-100-101-181600-
SOUTHERN COAST

CITY           SKY/WX    TMP DP  RH WIND       PRES   REMARKS
BEAUFORT       SUNNY     69  55  60 N14       30.33R
CEDAR ISLAND   NOT AVBL
JACKSONVILLE   SUNNY     63  53  70 N9        30.35S
PINEY ISLAND     N/A    N/A N/A N/A NE16      30.34R
WILMINGTON     SUNNY     64  52  64 N8        30.34S


$$

NCZ011>013-027>030-043-044-078>080-089-090>093-098-181600-
COASTAL PLAIN

CITY           SKY/WX    TMP DP  RH WIND       PRES   REMARKS
AHOSKIE        SUNNY     57  47  71 N6        30.41R
CLINTON        SUNNY     61  50  67 NE9       30.39R
ELIZABETHTOWN  NOT AVBL
GOLDSBORO      SUNNY     60  49  65 NE10      30.37S
GREENVILLE     SUNNY     61  50  67 N6        30.38F
HAVELOCK       SUNNY     67  56  67 NE13      30.35S
KENANSVILLE    SUNNY     59  48  67 NE7       30.38S
KINSTON        SUNNY     61  50  67 NE8       30.38F
NEW BERN       SUNNY     64  54  69 NE8       30.37S
RICHLANDS      SUNNY     62  51  67 N9        30.37S
ROCKY MOUNT    SUNNY     60  49  66 NE7       30.40F
WASHINGTON     SUNNY     62  52  69 NE10      30.37F
WHITEVILLE     SUNNY     59  49  68 NE7       30.35F

$$

AMZ130-135-150-152-154-156-158-170-250-252-270-ANZ085-086-088-633-658-670-181600-
MARINE OBSERVATIONS

STATION/POSITION TIME  TEMP    WIND        PRES    WAVE   SWELL
                       AIR SEA DIR/SP/G            HT/PER HT/PER
                 (UTC) (F)     (DEG/KT/KT) (MB)    (FT/S) (FT/S)
CHESAPEAKE LIGHT NOT AVBL
64 E VA BEACH    1450   63 67   50/ 12/ 16 1028.8    5/ 9   3/ 9
DUCK             1448   63 68   40/ 14/ 17 1028.0
2 E DUCK         1500      70                N/A     4/ 7   2/11
OREGON INLET     1436   65 64   40/ 11/ 16 1027.5
13E OREGON INLT  1448      71                N/A     5/ 9   3/ 9
HATTERAS CG      1448   65 66   30/ 12/ 18 1026.9
DIAMOND BUOY     1450   69 81   20/ 19/ 23 1025.8    6/ 8   3/21
CAPE LOOKOUT     1500   67      30/ 17/ 19 1026.6
BEAUFORT LAB     1448   66 69   10/ 12/ 14 1027.1
30 SE NEW RVR IN 1408   68      40/ 19/ 23 1025.6
30 SE NEW RVR IN NOT AVBL
27 SE WRIGHTSVLE 1408   67 77   70/ 19/ 25 1025.4
5 SE WRIGHTSVLE  1408   63 74   30/ 16/ 25 1026.7
225 S CAPE HAT   1450   75 80   50/ 23/ 27 1020.6    9/ 8
41 SE CHARLESTON 1500   71 80   20/ 19/ 25 1024.3

$$




USA.gov is the U.S. government's official web portal to all federal, state and local government web resources and services.